Regional Weather Roundup
Issued by NWS Grand Forks, ND

Home | Current Version | Previous Version | Graphics & Text | Print | Product List | Glossary On
Versions: 1 2 3 4 5 6 7 8 9 10 11 12 13 14 15 16 17 18 19 20 21 22 23 24 25 26 27 28 29 30 31 32 33 34 35 36 37 38 39 40 41 42 43 44 45 46 47 48 49 50
000
ASUS43 KFGF 231431
RWRFGF
PRAIRIE TO PINES  WEATHER ROUNDUP
NATIONAL WEATHER SERVICE EASTERN NORTH DAKOTA/GRAND FORKS ND
900 AM CDT THU OCT 23 2014

 **SATELLITE DATA USED TO AUGMENT SKY COVER AT AUTOMATED STATIONS**
 *****  WEATHER ACROSS EASTERN NORTH DAKOTA  *****

CITY           SKY/WX    TMP DP  RH WIND       PRES   REMARKS
GRAND FORKS    PTCLDY    43  40  89 SW6       29.86R
GRAND FRKS AFB CLEAR     48  42  81 SW10      29.86R
GRAND FRKS NWS   N/A     46 N/A N/A SW7         N/A
DEVILS LAKE    CLEAR     46  36  66 SW10      29.84S
FARGO          CLEAR     44  40  85 S7        29.92R
WAHPETON ARPT  SUNNY     37  37 100 CALM      29.96R
$$

 ***** WEATHER ACROSS CENTRAL AND WESTERN NORTH DAKOTA  *****

CITY           SKY/WX    TMP DP  RH WIND       PRES   REMARKS
BISMARCK       CLEAR     34  31  88 E3        29.92R
MINOT          CLEAR     44  34  67 S12       29.84R
JAMESTOWN      CLEAR     43  35  73 W7        29.91R
MINOT AFB      CLEAR     40  34  81 SW5       29.83R
GARRISON         N/A     38  35  89 S3        29.86S
WILLISTON      CLEAR     34  31  88 SW3       29.84S
DICKINSON      CLEAR     40  29  64 SW7       29.87S
HETTINGER      CLEAR     33  27  78 CALM      29.93S
$$

 *****  OTHER AIRPORT OBSERVATIONS IN OUR AREA  *****

CITY           SKY/WX    TMP DP  RH WIND       PRES   REMARKS
WALHALLA         N/A     46  41  81 SW7       29.81R
GRAFTON AIRPOR FAIR      45  41  87 SW9       29.83R
VALLEY CITY AR FAIR      41  41 100 S3        29.92R
CANDO          FAIR      39  37  93 SW6       29.84S
CAVALIER APRT  FAIR      46  39  76 SW12      29.81R
GWINNER        SUNNY     43  39  87 SW14      29.95R
ROLLA          FAIR      41  36  81 SW9       29.82S
 ***** THE ABOVE OBSERVATIONS ARE NON NWS ARE NOT QUALITY
       CONTROLLED AND MAY MIS-REPORT RAIN FOR SNOW...
$$

  *****  WEATHER ACROSS NORTHERN MINNESOTA  *****

CITY           SKY/WX    TMP DP  RH WIND       PRES   REMARKS
FLAG ISLAND    CLOUDY    48  46  93 S7        29.81S
WARROAD        CLOUDY    48  45  87 S6        29.84R
ROSEAU         MOCLDY    48  45  87 S9        29.84R
HALLOCK        PTCLDY    43  43 100 S7        29.83R
THF RVR FALLS  PTCLDY    45  43  93 S9        29.88R
BAUDETTE       CLOUDY    49  46  90 S8        29.86R
WASKISH        PTCLDY    48  48 100 CALM      29.88S
CROOKSTON      CLEAR     43  41  93 S8        29.89R
STEPHEN NDAWN    N/A     46  45  93 S12         N/A
GREENBUSH NDAW   N/A     45  45 100 S9          N/A
$$
  *****  WEATHER ACROSS CENTRAL AND WEST MINNESOTA  *****

CITY           SKY/WX    TMP DP  RH WIND       PRES   REMARKS
FOSSTON        CLEAR     46  45  93 S10       29.90S
BEMIDJI        PTSUNNY   48  47  96 S5        29.91R
PARK RAPIDS    CLOUDY    48  48 100 SW5       29.94R
ELBOW LAKE     FAIR      42  42 100 S6        29.96R FOG
WADENA         FOG       46  45  93 S3        29.95R VSB<1/4
DETROIT LAKES    N/A     45  45 100 S6        29.94R FOG
MOORHEAD       CLEAR     43  43 100 S8        29.94R
FERGUS FALLS   CLEAR     43  43 100 S3        29.97R
MORRIS MN      FOG       41  39  93 SE5       29.97R VSB 1/2
STAPLES        CLOUDY    48  48 100 SW5       29.96R FOG
$$
  *****  WEATHER ELSEWHERE ACROSS MINNESOTA  *****

CITY           SKY/WX    TMP DP  RH WIND       PRES   REMARKS
DULUTH         FOG       48  46  93 SW8       29.96S VSB 1/4
INTRNTL FALLS  CLOUDY    50  48  93 S6        29.89S
ELY            NOT AVBL
CLOQUET        FOG       48  46  93 SW5       29.97R VSB 3/4
WHEATON        CLEAR     43  39  87 CALM      29.98R
BRAINERD       CLOUDY    51  50  96 SW7       29.96S
HIBBING        FOG       49  46  90 SW6       29.94R VSB 1
ALEXANDRIA     SUNNY     47  46  97 SW5       29.97R
SAINT CLOUD    FOG       53  51  93 SW5       29.98R VSB 1/4
MINNEAPOLIS    CLOUDY    53  51  93 VRB5      30.00S
$$

  *****  WEATHER ACROSS SOUTH DAKOTA  *****

CITY           SKY/WX    TMP DP  RH WIND       PRES   REMARKS
SIOUX FALLS    MOSUNNY   45  45 100 CALM      30.03R FOG
BROOKINGS      NOT AVBL
WATERTOWN      CLEAR     39  39 100 SE3       30.00R
HURON          PTCLDY    38  36  92 SE6       30.00R
SISSETON         N/A     51  40  65 W12       29.94R
ABERDEEN       PTCLDY    36  33  89 S6        29.98R
MITCHELL       CLEAR     42  41  96 SE5       30.02R
PIERRE         CLEAR     39  35  86 SW5       29.97S
MOBRIDGE       CLEAR     41  38  89 CALM      29.93R
RAPID CITY     PTCLDY    38  24  57 CALM      29.97F
$$

  *****  SOME WEATHER IN NEARBY STATES *****

CITY           SKY/WX    TMP DP  RH WIND       PRES   REMARKS
GLASGOW MT     PTCLDY    38  31  76 E10       29.78F
GREAT FALLS MT CLOUDY    49  34  56 S9        29.81R
CHEYENNE WY    PTCLDY    47  31  53 SW13      30.16S
SCOTTSBLUFF NE PTCLDY    35  31  85 CALM      30.09F
OMAHA NE       CLOUDY    59  56  89 N8        30.06R FOG
DES MOINES IA  CLOUDY    55  52  89 SW7       30.05R
DAVENPORT IA   PTSUNNY   47  38  71 SE10      30.13F
CHICAGO IL     PTSUNNY   43  39  86 S7        30.22R
EAU CLAIRE WI  LGT RAIN  48  46  93 S8        30.02S
LA CROSSE WI   CLOUDY    49  46  90 S10       30.06R
$$

  *****  SOME NATIONAL WEATHER *****

CITY           SKY/WX    TMP DP  RH WIND       PRES   REMARKS
LA GUARDIA NY  CLOUDY    52  46  80 N15G23    29.70S
RALEIGH NC     SUNNY     55  40  56 NW10G20   30.02S
ATLANTA GA     MOSUNNY   50  43  77 W3        30.15S
NEW ORLEANS LA MOSUNNY   65  51  60 NE8       30.11R
OKLAHOMA CITY  CLOUDY    61  56  83 S9        30.13R
ALBUQUERQUE NM CLEAR     53  42  66 CALM      30.28R
SALT LAKE CITY MOCLDY    47  34  60 SE10      30.12R
LOS ANGELES CA PTCLDY    63  57  81 CALM      29.95R
BOISE ID       CLOUDY    53  44  71 SE10      30.01S
SEATTLE WA     LGT RAIN  51  48  89 S13       29.76R
$$

*** WEATHER ACROSS MANITOBA...SASKATCHEWAN AND ONTARIO ***
                ***ONTARIO***

CITY           SKY/WX    TMP DP  RH WIND       PRES   REMARKS
GERALDTON      CLOUDY    41  39  93 S9        30.01
THUNDER BAY    LGT RAIN  46  45  93 NE6       30.00
SIOUX LOOKOUT  DRIZZLE   46  46 100 S6        29.86F FOG
TORONTO        SUNNY     50  41  71 N9        30.17S
BIG TROUT LK   CLOUDY    48  41  76 S7        29.77F
PICKLE LAKE    LGT RAIN  46  37  71 S14G20    29.84S
DRYDEN         CLOUDY    48  46  93 S14       29.85R
KENORA         MOCLDY    50  48  93 S12G20    29.82R
$$
                *** MANITOBA***

CITY           SKY/WX    TMP DP  RH WIND       PRES   REMARKS
BRANDON        PTCLDY    37  37 100 W6        29.78S
DAUPHIN        CLOUDY    52  46  82 W10       29.72
ISLAND LAKE    LGT RAIN  52  52 100 S6        29.65R FOG
PILOT MOUND      N/A     39  37  93 SW8         N/A
THE PAS        DRIZZLE   46  43  87 N5        29.69S
THOMPSON       LGT RAIN  37  37 100 NE12G17   29.75F
WINNIPEG       MOCLDY    50  46  87 SW8       29.77R
LYNN LAKE      FOG       36  36 100 E7        29.79S VSB 1/4
CHURCHILL      CLOUDY    37  36  93 E18       29.96
GILLAM         LGT RAIN  37  36  93 NE15G23   29.78F
$$
                ***SASKATCHEWAN***

CITY           SKY/WX    TMP DP  RH WIND       PRES   REMARKS
ESTEVAN        MOCLDY    37  34  87 SW9       29.81R
KINDERSLEY     MOCLDY    45  37  76 S12       29.59F
LLOYDMINSTER   MOCLDY    43  36  75 SE9       29.50
PRINCE ALBERT  FOG       41  41 100 E6        29.68F VSB 1/4
REGINA         MOCLDY    34  32  93 SE8       29.74F
YORKTON        MOCLDY    39  37  93 SW9       29.75R
N. BATTLEFORD  CLOUDY    45  37  76 SE10      29.60S
LA RONGE       FOG       43  43 100 NE9       29.69F VSB 1/2
SASKATOON      CLOUDY    39  36  87 S8        29.65F
SWIFT CURRENT  CLEAR     46  36  66 SW18      29.68R
$$
NOTE: THESE ARE AUTOMATED STATIONS WITH LIMITED QUALITY CONTROL
      "FAIR" INDICATES FEW OR NO CLOUDS BELOW 12,000 FEET WITH NO
      SIGNIFICANT WEATHER AND/OR OBSTRUCTIONS TO VISIBILITY.
      SKY/WX - SKY CONDITION AND SIGNIFICANT WEATHER.
      TMP - AIR TEMPERATURE.    DP   - DEWPOINT TEMPERATURE.
      RH  - RELATIVE HUMIDITY.  PRES - PRESSURE.
      HX  - HEAT INDEX.         WCI  - WIND CHILL INDEX.
$



USA.gov is the U.S. government's official web portal to all federal, state and local government web resources and services.